"Pseudo-MPEC" for C11EU35

Created 2025 Feb 7 4:31:05 UT using Find_Orb

Click here for an explanation of pseudo-MPECs

 
 Astrometry: 
     C11EU35* C2025 02 04.44620610 30 26.154+45 30 53.03   ~24BV 22.90GVNEOCPV00
     C11EU35  C2025 02 04.45182310 30 27.695+45 30 48.46   ~24BV 22.66GVNEOCPV00
     C11EU35  C2025 02 04.45742910 30 29.261+45 30 43.96   ~24BV       VNEOCPV00
     C11EU35  C2025 02 04.46303310 30 30.766+45 30 39.17   ~24BV 22.68GVNEOCPV00
     C11EU35 mC2025 02 05.23506010 34 24.410+45 21 41.80   ~2562       VNEOCPV00
     C11EU35 mC2025 02 05.23602910 34 24.740+45 21 41.10   ~2562 22.55GVNEOCPV00

Station data:
(V00) Kitt Peak-Bok  (N31.963125 W111.600190)  US/Arizona.  Observers T. A.
   Pruyne, B. M. Africano, E. J. Christensen, G. A. Farneth, D. C. Fuls, A.
   R. Gibbs, A. D. Grauer, H. Gröller, J. A. Johnson, R. A. Kowalski, S. M.
   Larson, G. J. Leonard, D. Rankin, R. L. Seaman, F. C. Shelly, K. W.
   Wierzchoś. 2.25-m reflector + 4x4K mosaic CCD.

Orbital elements:  C11EU35
   Perihelion 2025 Feb 26.26406 +/- 20.8 TT =  6:20:14 (JD 2460732.76406)
Epoch 2025 Feb  5.0 TT = JDT 2460711.5   Earth MOID: 0.1182   Ma: 0.0810
M 353.68233485 +/- 5.2              (J2000 ecliptic)             AutoNEOCP
n   0.29710534 +/- 0.0838           Peri.  140.17820 +/- 59
a   2.22431216 +/- 0.418            Node    18.49006 +/- 36
e   0.5071660 +/- 0.091             Incl.    5.14222 +/- 2.5
P   3.31737                H 25.39  G  0.15   U 11.1  SR
q 1.09621662 +/- 0.0629    Q 3.35240769 +/- 0.996
From 6 observations 2025 Feb. 4-5 (19.0 hr); mean residual 0".39
Residuals in arcseconds: 
250204 V00  .49-  .69+    250204 V00  .39+  .15-    250205 V00  .32-  .08+    
250204 V00  .18-  .22+    250204 V00  .30+  .77-    250205 V00  .31+  .06-    

Ephemerides (geocentric):
Date (UTC) HH   RA             Dec           delta  r     elong  mag " sig PA
---- --------  ------------   ------------  ------ ------ -----  --- --------
2025 02 07 05  10 44 14.824   +44 53 00.94  .15566 1.1185 145.8 22.9  471  76
2025 02 07 06  10 44 27.514   +44 52 18.81  .15555 1.1184 145.8 22.9  487  76
2025 02 07 07  10 44 40.210   +44 51 36.43  .15544 1.1183 145.8 22.9  502  76
2025 02 07 08  10 44 52.911   +44 50 53.81  .15534 1.1182 145.8 22.9  519  76
2025 02 07 09  10 45 05.618   +44 50 10.94  .15523 1.1181 145.8 22.9  535  76
2025 02 07 10  10 45 18.330   +44 49 27.82  .15512 1.1180 145.8 22.9  551  76
2025 02 07 11  10 45 31.048   +44 48 44.45  .15502 1.1179 145.8 22.9  568  76
2025 02 07 12  10 45 43.771   +44 48 00.84  .15491 1.1178 145.8 22.9  585  76
2025 02 07 13  10 45 56.500   +44 47 16.97  .15481 1.1178 145.8 22.9  602  75
2025 02 07 14  10 46 09.234   +44 46 32.86  .15470 1.1177 145.8 22.9  620  75
2025 02 07 15  10 46 21.974   +44 45 48.50  .15459 1.1176 145.8 22.9  637  75
2025 02 07 16  10 46 34.719   +44 45 03.89  .15449 1.1175 145.8 22.9  655  75
2025 02 07 17  10 46 47.469   +44 44 19.02  .15438 1.1174 145.8 22.9  673  75
2025 02 07 18  10 47 00.225   +44 43 33.91  .15428 1.1173 145.8 22.9  691  75
2025 02 07 19  10 47 12.985   +44 42 48.55  .15417 1.1172 145.7 22.9  710  75
2025 02 07 20  10 47 25.751   +44 42 02.94  .15407 1.1171 145.7 22.9  729  75
2025 02 07 21  10 47 38.522   +44 41 17.07  .15396 1.1170 145.7 22.9  747  75
2025 02 07 22  10 47 51.298   +44 40 30.96  .15386 1.1169 145.7 22.9  766  75
2025 02 07 23  10 48 04.079   +44 39 44.59  .15375 1.1168 145.7 22.9  786  75
2025 02 08 00  10 48 16.865   +44 38 57.97  .15365 1.1167 145.7 22.9  805  75
2025 02 08 01  10 48 29.656   +44 38 11.09  .15355 1.1166 145.7 22.9  825  75
2025 02 08 02  10 48 42.452   +44 37 23.97  .15344 1.1165 145.7 22.9  845  75
2025 02 08 03  10 48 55.252   +44 36 36.59  .15334 1.1165 145.7 22.9  865  75
2025 02 08 04  10 49 08.058   +44 35 48.95  .15323 1.1164 145.7 22.9  885  75
2025 02 08 05  10 49 20.868   +44 35 01.07  .15313 1.1163 145.7 22.9  906  75
2025 02 08 06  10 49 33.684   +44 34 12.92  .15303 1.1162 145.7 22.9  926  75
2025 02 08 07  10 49 46.503   +44 33 24.53  .15292 1.1161 145.7 22.9  947  75
2025 02 08 08  10 49 59.328   +44 32 35.88  .15282 1.1160 145.7 22.9  968  74
2025 02 08 09  10 50 12.157   +44 31 46.97  .15272 1.1159 145.7 22.8  990  74
2025 02 08 10  10 50 24.991   +44 30 57.81  .15262 1.1158 145.6 22.8 1011  74
2025 02 08 11  10 50 37.829   +44 30 08.39  .15251 1.1157 145.6 22.8 1033  74
2025 02 08 12  10 50 50.672   +44 29 18.71  .15241 1.1156 145.6 22.8 1055  74
2025 02 08 13  10 51 03.519   +44 28 28.78  .15231 1.1155 145.6 22.8 1077  74
2025 02 08 14  10 51 16.370   +44 27 38.59  .15221 1.1155 145.6 22.8 1099  74
2025 02 08 15  10 51 29.226   +44 26 48.14  .15210 1.1154 145.6 22.8 1122  74
2025 02 08 16  10 51 42.086   +44 25 57.44  .15200 1.1153 145.6 22.8 1144  74
2025 02 08 17  10 51 54.951   +44 25 06.48  .15190 1.1152 145.6 22.8 1167  74
2025 02 08 18  10 52 07.820   +44 24 15.26  .15180 1.1151 145.6 22.8 1190  74
2025 02 08 19  10 52 20.693   +44 23 23.78  .15170 1.1150 145.6 22.8 1213  74
2025 02 08 20  10 52 33.570   +44 22 32.04  .15160 1.1149 145.6 22.8 1237  74
2025 02 08 21  10 52 46.451   +44 21 40.05  .15149 1.1148 145.6 22.8 1260  74
2025 02 08 22  10 52 59.336   +44 20 47.79  .15139 1.1147 145.6 22.8 1284  74
2025 02 08 23  10 53 12.225   +44 19 55.28  .15129 1.1147 145.6 22.8 1308  74
2025 02 09 00  10 53 25.118   +44 19 02.50  .15119 1.1146 145.6 22.8 1332  74
2025 02 09 01  10 53 38.016   +44 18 09.46  .15109 1.1145 145.6 22.8 1357  74
2025 02 09 02  10 53 50.917   +44 17 16.17  .15099 1.1144 145.6 22.8 1381  74
2025 02 09 03  10 54 03.821   +44 16 22.61  .15089 1.1143 145.6 22.8 1406  74
2025 02 09 04  10 54 16.730   +44 15 28.79  .15079 1.1142 145.5 22.8 1431  74